This demonstration page uses our WeatherBlox Daily Observations layout. Learn more.

Left ArrowRight Arrow

39.51506, -84.39828

Hourly Observations for May 24, 2021

Temp ( °F °C ) Dew Point ( °F °C ) Humidity (%) Winds ( mph kmh ) Pressure ( in mb ) Visibility ( mi km ) Precip ( " mm )
12:15 am 00:15 Clear 69 20.3 67 19.5 95 95 Calm 30.15 1021 10 16 0.00 0.00
12:35 am 00:35 Clear with Mist and Fog 69 20.3 68 19.9 98 98 Calm 30.15 1021 4 6 0.00 0.00
12:55 am 00:55 Clear 68 20 68 20 100 100 Calm 30.15 1021 10 16 0.00 0.00
1:15 am 01:15 Clear with Mist and Fog 68 20.1 68 19.9 99 99 E 3 6 30.15 1021 7 11 0.00 0.00
1:35 am 01:35 Clear 66 19 66 19 100 100 NE 3 6 30.15 1021 10 16 0.00 0.00
1:55 am 01:55 Partly Cloudy 66 19 N/A N/A Calm 30.15 1021 7 11 0.00 0.00
2:15 am 02:15 Cloudy 66 19 N/A N/A Calm 30.15 1021 10 16 0.00 0.00
2:35 am 02:35 Cloudy 67 19.3 66 19 98 98 Calm 30.15 1021 10 16 0.00 0.00
2:55 am 02:55 Mostly Cloudy 66 19 66 19 100 100 Calm 30.15 1021 10 16 0.00 0.00
3:10 am 03:10 Cloudy 67 19.2 66 19.1 99 99 Calm 30.14 1021 10 16 0.00 0.00
3:35 am 03:35 Partly Cloudy 66 19 N/A N/A Calm 30.14 1021 10 16 0.00 0.00
3:55 am 03:55 Hazy 64 18 N/A N/A Calm 30.14 1021 5 8 0.00 0.00
4:15 am 04:15 Clear 64 18 N/A N/A Calm 30.14 1021 10 16 0.00 0.00
4:35 am 04:35 Clear 64 18 N/A N/A Calm 30.14 1021 10 16 0.00 0.00
4:55 am 04:55 Clear 63 17 N/A N/A Calm 30.14 1021 10 16 0.00 0.00
5:15 am 05:15 Clear 63 17 N/A N/A Calm 30.14 1021 7 11 0.00 0.00
5:35 am 05:35 Hazy 63 17 N/A N/A Calm 30.14 1021 4 6 0.00 0.00
5:55 am 05:55 Cloudy with Haze 63 17 N/A N/A Calm 30.14 1021 5 8 0.00 0.00
6:15 am 06:15 Cloudy with Haze 63 17 N/A N/A Calm 30.15 1021 5 8 0.00 0.00
6:35 am 06:35 Mostly Cloudy with Haze 64 18 N/A N/A E 3 6 30.16 1021 5 8 0.00 0.00
6:55 am 06:55 Mostly Cloudy with Haze 64 18 N/A N/A Calm 30.17 1022 7 11 0.00 0.00
7:15 am 07:15 Partly Cloudy 64 18 N/A N/A Calm 30.18 1022 7 11 0.00 0.00
7:35 am 07:35 Partly Cloudy 66 19 N/A N/A Calm 30.18 1022 7 11 0.00 0.00
7:55 am 07:55 Mostly Cloudy 66 19 N/A N/A Calm 30.19 1022 7 11 0.00 0.00
8:15 am 08:15 Partly Cloudy 68 20 68 19.8 99 99 Calm 30.18 1022 7 11 0.00 0.00
8:35 am 08:35 Partly Cloudy 70 20.9 68 20 95 95 WSW 5 7 30.18 1022 10 16 0.00 0.00
8:55 am 08:55 Mostly Cloudy 72 22 67 19.4 85 85 WSW 5 7 30.18 1022 10 16 0.00 0.00
9:15 am 09:15 Mostly Cloudy 72 22.4 67 19.7 85 85 SW 5 7 30.18 1022 10 16 0.00 0.00
9:35 am 09:35 Mostly Cloudy 74 23.5 68 20.1 81 81 SW 6 9 30.19 1022 10 16 0.00 0.00
9:55 am 09:55 Mostly Cloudy 76 24.7 68 20 75 75 SW 6 9 30.18 1022 10 16 0.00 0.00
10:15 am 10:15 Sunny 78 25.8 68 19.8 70 70 SW 7 11 30.17 1022 10 16 0.00 0.00
10:35 am 10:35 Sunny 80 26.8 66 19.1 63 63 SW 8 13 30.17 1022 10 16 0.00 0.00
10:55 am 10:55 Sunny 81 27.3 66 18.9 60 60 SW 7 11 30.17 1022 10 16 0.00 0.00
11:15 am 11:15 Sunny 82 27.7 66 18.7 58 58 W 8 13 30.16 1021 10 16 0.00 0.00
11:35 am 11:35 Sunny 81 27.4 66 18.8 59 59 WSW 7 11 30.16 1021 10 16 0.00 0.00
11:55 am 11:55 Sunny 83 28.5 64 18 53 53 W 7 11 30.16 1021 10 16 0.00 0.00
12:15 pm 12:15 Sunny 85 29.2 63 17.4 49 49 W 8 13 30.15 1021 10 16 0.00 0.00
12:35 pm 12:35 Sunny 83 28.4 63 17.2 51 51 SW 6 9 30.16 1021 10 16 0.00 0.00
12:55 pm 12:55 Sunny 86 30 65 18.2 49 49 WSW 12 19 30.14 1021 10 16 0.00 0.00
1:15 pm 13:15 Sunny 85 29.5 64 17.6 49 49 W 10 17 30.14 1021 10 16 0.00 0.00
1:35 pm 13:35 Mostly Cloudy 86 30 65 18.2 49 49 W 6 9 30.13 1020 10 16 0.00 0.00
1:55 pm 13:55 Mostly Cloudy 85 29.7 65 18.6 51 51 W 8 13 30.12 1020 10 16 0.00 0.00
2:15 pm 14:15 Partly Cloudy 86 30 64 18 49 49 W 10 17 30.11 1020 10 16 0.00 0.00
2:35 pm 14:35 Partly Cloudy 87 30.7 65 18.6 48 48 WSW 10 17 30.11 1020 10 16 0.00 0.00
2:55 pm 14:55 Mostly Cloudy 87 30.3 63 17.3 46 46 W 10 17 30.11 1020 10 16 0.00 0.00
3:15 pm 15:15 Partly Cloudy 86 30.2 63 17 45 45 W 7 11 30.10 1019 10 16 0.00 0.00
3:35 pm 15:35 Mostly Cloudy 85 29.4 62 16.5 46 46 WSW 10 17 30.10 1019 10 16 0.00 0.00
3:55 pm 15:55 Cloudy 85 29.6 61 16.3 45 45 W 6 9 30.10 1019 10 16 0.00 0.00
4:15 pm 16:15 Cloudy 85 29.7 62 16.7 46 46 NW 10 17 30.09 1019 10 16 0.00 0.00
4:35 pm 16:35 Partly Cloudy 87 30.6 62 16.7 43 43 WNW 9 15 30.08 1019 10 16 0.00 0.00
4:55 pm 16:55 Mostly Cloudy 87 30.3 62 16.5 43 43 WNW 7 11 30.07 1018 10 16 0.00 0.00
5:15 pm 17:15 Mostly Cloudy 86 30 61 15.9 42 42 W 8 13 30.07 1018 10 16 0.00 0.00
5:35 pm 17:35 Partly Cloudy 85 29.6 62 16.6 45 45 W 8 13 30.07 1018 10 16 0.00 0.00
5:55 pm 17:55 Mostly Cloudy 85 29.6 63 17.4 48 48 W 12 19 30.07 1018 10 16 0.00 0.00
6:15 pm 18:15 Partly Cloudy 84 29 62 16.9 48 48 WSW 9 15 30.07 1018 10 16 0.00 0.00
6:35 pm 18:35 Sunny 85 29.4 62 16.6 46 46 W 9 15 30.07 1018 10 16 0.00 0.00
6:55 pm 18:55 Sunny 86 29.9 62 16.9 46 46 WSW 9 15 30.06 1018 10 16 0.00 0.00
7:15 pm 19:15 Sunny 85 29.4 62 16.7 46 46 WSW 8 13 30.06 1018 10 16 0.00 0.00
7:35 pm 19:35 Partly Cloudy 82 27.7 64 17.8 55 55 WSW 7 11 30.07 1018 10 16 0.00 0.00
7:55 pm 19:55 Mostly Cloudy 81 27.2 63 17.1 54 54 WSW 6 9 30.08 1019 10 16 0.00 0.00
8:15 pm 20:15 Sunny 80 26.9 63 17.2 55 55 W 3 6 30.08 1019 10 16 0.00 0.00
8:35 pm 20:35 Sunny 78 25.7 66 18.7 65 65 Calm 30.08 1019 10 16 0.00 0.00
8:55 pm 20:55 Clear 75 24 68 20.1 79 79 Calm 30.09 1019 10 16 0.00 0.00
9:15 pm 21:15 Clear 75 24.1 66 18.9 73 73 WSW 3 6 30.10 1019 10 16 0.00 0.00
9:35 pm 21:35 Clear 74 23.2 67 19.6 80 80 Calm 30.11 1020 10 16 0.00 0.00
9:55 pm 21:55 Clear 71 21.8 68 19.9 89 89 Calm 30.11 1020 10 16 0.00 0.00
10:15 pm 22:15 Clear 71 21.6 66 19.1 86 86 Calm 30.12 1020 10 16 0.00 0.00
10:35 pm 22:35 Clear 71 21.4 65 18.5 84 84 Calm 30.12 1020 10 16 0.00 0.00
10:55 pm 22:55 Clear 70 21 67 19.2 90 90 Calm 30.12 1020 10 16 0.00 0.00
11:15 pm 23:15 Clear 68 20 65 18.5 91 91 Calm 30.13 1020 10 16 0.00 0.00
11:35 pm 23:35 Clear 68 20.2 66 19 93 93 Calm 30.13 1020 10 16 0.00 0.00
11:55 pm 23:55 Clear 67 19.6 66 18.9 96 96 Calm 30.14 1021 10 16 0.00 0.00

Powered by AerisWeather